KB9OQF-5 Weather Reports


Display with metric or nautical units.
time (UTC)temp
F
wind
direction
speed
MPH
gust
MPH
rain 1hr
in
rain 24hr
in
rain mn
in
humidity
%
barometer
mb
20260902133221 78 0 0.0 0.0 0.00 0.00 0.00 76 988.0
20260902132855 78 0 0.0 0.0 0.00 0.00 0.00 76 988.0
20260902122446 75 0 0.0 0.0 0.00 0.00 0.00 83 988.0
20260902112036 73 0 0.0 0.0 0.00 0.00 0.00 83 988.0
20260902104504 74 0 0.0 0.0 0.00 0.00 0.00 82 987.0
20260902103945 74 0 0.0 0.0 0.00 0.00 0.00 82 987.0
20260902102215 74 0 0.0 0.0 0.00 0.00 0.00 82 987.0
20260902101643 74 0 0.0 0.0 0.00 0.00 0.00 81 987.0
20260902100449 74 0 0.0 0.0 0.00 0.00 0.00 82 987.0
20260902094746 75 0 0.0 0.0 0.00 0.00 0.00 81 987.0
20260902094715 75 0 0.0 0.0 0.00 0.00 0.00 81 987.0
20260902094127 75 0 0.0 0.0 0.00 0.00 0.00 81 987.0
20260902092355 75 0 0.0 0.0 0.00 0.00 0.00 82 987.0
20260902085445 75 0 0.0 0.0 0.00 0.00 0.00 83 987.0
20260902084854 75 0 0.0 0.0 0.00 0.00 0.00 82 987.0
20260902082538 75 0 0.0 0.0 0.00 0.00 0.00 83 987.0
20260902075107 76 0 0.0 0.0 0.00 0.00 0.00 85 987.0
20260902075035 76 0 0.0 0.0 0.00 0.00 0.00 85 987.0
20260902073355 76 0 0.0 0.0 0.00 0.00 0.00 85 987.0
20260902073305 76 0 0.0 0.0 0.00 0.00 0.00 85 987.0
20260902070423 76 0 0.0 0.0 0.00 0.00 0.00 84 987.0
20260902063446 77 0 0.0 0.0 0.00 0.00 0.00 83 987.0
20260902062856 77 0 0.0 0.0 0.00 0.00 0.00 83 987.0
20260902061834 77 0 0.0 0.0 0.00 0.00 0.00 84 987.0
20260902061715 77 0 0.0 0.0 0.00 0.00 0.00 84 987.0
20260902061124 77 0 0.0 0.0 0.00 0.00 0.00 83 987.0
20260902060540 77 0 0.0 0.0 0.00 0.00 0.00 83 987.0
20260902053625 78 0 0.0 0.0 0.00 0.00 0.00 80 987.0
20260902052444 78 0 0.0 0.0 0.00 0.00 0.00 80 987.0
20260902050715 79 0 0.0 0.0 0.00 0.00 0.00 79 987.0
20260902045534 79 0 0.0 0.0 0.00 0.00 0.00 79 987.0
20260902044945 79 0 0.0 0.0 0.00 0.00 0.00 79 987.0
20260902042035 80 0 0.0 0.0 0.00 0.00 0.00 78 987.0
20260902040854 80 0 0.0 0.0 0.00 0.00 0.00 80 987.0
20260902035715 79 0 0.0 0.0 0.00 0.00 0.00 80 986.0
20260902032215 79 0 0.0 0.0 0.00 0.00 0.00 81 986.0
20260902031625 80 0 0.0 0.0 0.00 0.00 0.00 80 987.0
20260902025306 80 0 0.0 0.0 0.00 0.00 0.00 80 987.0
20260902024715 80 0 0.0 0.0 0.00 0.00 0.00 79 986.0
20260902024124 81 0 0.0 0.0 0.00 0.00 0.00 77 986.0
20260902022944 81 0 0.0 0.0 0.00 0.00 0.00 78 986.0
20260902022355 81 0 0.0 0.0 0.00 0.00 0.00 78 986.0
20260902021214 81 0 0.0 0.0 0.00 0.08 0.00 76 986.0
20260902011945 83 0 0.0 0.0 0.00 0.08 0.00 75 986.0
20260902010215 84 0 0.0 0.0 0.00 0.12 0.00 72 986.0
20260901231125 94 0 0.0 0.0 0.00 0.12 0.00 54 986.0
20260901230535 94 0 0.0 0.0 0.00 0.12 0.00 54 986.0
20260901225945 94 0 0.0 0.0 0.00 0.12 0.00 55 986.0
20260901224215 95 0 0.0 0.0 0.00 0.12 0.00 49 986.0
20260901223625 95 0 0.0 0.0 0.00 0.12 0.00 51 986.0